This is the latest recevied weather packets stored in our database for station/object KB0VBZ. If no packets are shown the sender has not sent any weather packets the latest 1 day(s).
| Time | Temp. | Humidity | Pressure | Rain* | Wind** | Luminosity | Snow |
|---|---|---|---|---|---|---|---|
| 1777988829 | 15° C | - | - | - | 3.13 m/s, 337° | - | - |
| 1777988456 | 15° C | - | - | - | 2.68 m/s, 337° | - | - |
| 1777988392 | 15° C | - | - | - | 2.24 m/s, 70° | - | - |
| 1777988328 | 15° C | - | - | - | 1.79 m/s, 337° | - | - |
| 1777987955 | 15° C | - | - | - | 2.24 m/s, 337° | - | - |
| 1777987583 | 15° C | - | - | - | 2.24 m/s, 337° | - | - |
| 1777987448 | 15° C | - | - | - | 3.13 m/s, 337° | - | - |
| 1777987384 | 15° C | - | - | - | 2.68 m/s, 78° | - | - |
| 1777987321 | 15° C | - | - | - | 3.13 m/s, 337° | - | - |
| 1777987187 | 15° C | - | - | - | 4.02 m/s, 90° | - | - |
| 1777987122 | 15° C | - | - | - | 4.47 m/s, 337° | - | - |
| 1777986003 | 15° C | - | - | - | 3.13 m/s, 337° | - | - |
| 1777985630 | 15° C | - | - | - | 3.13 m/s, 337° | - | - |
| 1777984883 | 15° C | - | - | - | 2.68 m/s, 337° | - | - |
| 1777984883 | 15° C | - | - | - | 2.68 m/s, 90° | - | - |
| 1777984587 | 15° C | - | - | - | 2.68 m/s, 90° | - | - |
| 1777984149 | 15° C | - | - | - | 3.13 m/s, 337° | - | - |
| 1777983402 | 15° C | - | - | - | 2.68 m/s, 337° | - | - |
| 1777983244 | 15° C | - | - | - | 2.24 m/s, 337° | - | - |
| 1777983029 | 15° C | - | - | - | 2.24 m/s, 337° | - | - |
| 1777982509 | 15° C | - | - | - | 2.24 m/s, 337° | - | - |
| 1777982136 | 15° C | - | - | - | 0 m/s | - | - |
| 1777981390 | 15° C | - | - | - | 0 m/s | - | - |
| 1777980643 | 15° C | - | - | - | 0 m/s | - | - |
| 1777979897 | 15° C | - | - | - | 0 m/s | - | - |
* Rain since midnight (hover to see other rain measurements)
** Current wind speed in m/s (hover to see current wind gust speed)